| time (UTC) | temp F | wind direction | speed knots | gust knots | rain 1hr in | rain 24hr in | rain mn in | humidity % | barometer mb |
| 20260505072550 | 64 | 250 | 0.0 | 3.5 | 0.00 | 0.00 | 0.00 | 65 | 1005.7 |
| 20260505072046 | 64 | 0 | 0.0 | 1.7 | 0.00 | 0.00 | 0.00 | 65 | 1005.6 |
| 20260505071554 | 64 | 0 | 0.0 | 1.7 | 0.00 | 0.00 | 0.00 | 65 | 1005.6 |
| 20260505071048 | 64 | 250 | 0.0 | 1.7 | 0.00 | 0.00 | 0.00 | 65 | 1005.6 |
| 20260505070547 | 64 | 0 | 0.0 | 1.7 | 0.00 | 0.00 | 0.00 | 65 | 1005.6 |
| 20260505070104 | 64 | 0 | 0.9 | 2.6 | 0.00 | 0.00 | 0.00 | 65 | 1005.6 |
| 20260505065548 | 64 | 0 | 0.0 | 2.6 | 0.00 | 0.00 | 0.00 | 65 | 1005.6 |
| 20260505065048 | 64 | 0 | 0.0 | 2.6 | 0.00 | 0.00 | 0.00 | 64 | 1005.5 |
| 20260505064557 | 65 | 293 | 0.0 | 2.6 | 0.00 | 0.00 | 0.00 | 64 | 1005.4 |
| 20260505064048 | 65 | 264 | 0.9 | 2.6 | 0.00 | 0.00 | 0.00 | 64 | 1005.5 |
| 20260505063548 | 65 | 0 | 0.0 | 1.7 | 0.00 | 0.00 | 0.00 | 64 | 1005.5 |
| 20260505063056 | 65 | 0 | 0.0 | 2.6 | 0.00 | 0.00 | 0.00 | 64 | 1005.6 |
| 20260505062548 | 65 | 236 | 0.0 | 2.6 | 0.00 | 0.00 | 0.00 | 64 | 1005.6 |
| 20260505062052 | 65 | 236 | 0.0 | 2.6 | 0.00 | 0.00 | 0.00 | 64 | 1005.5 |
| 20260505061625 | 65 | 225 | 0.0 | 3.5 | 0.00 | 0.00 | 0.00 | 64 | 1005.6 |
| 20260505061049 | 65 | 0 | 0.9 | 3.5 | 0.00 | 0.00 | 0.00 | 64 | 1005.5 |
| 20260505060548 | 65 | 315 | 0.0 | 3.5 | 0.00 | 0.00 | 0.00 | 64 | 1005.3 |
| 20260505060100 | 65 | 0 | 0.9 | 3.5 | 0.00 | 0.00 | 0.00 | 63 | 1005.2 |
| 20260505055550 | 66 | 259 | 0.9 | 2.6 | 0.00 | 0.00 | 0.00 | 63 | 1005.2 |
| 20260505055047 | 66 | 0 | 0.0 | 5.2 | 0.00 | 0.00 | 0.00 | 63 | 1005.1 |
| 20260505054600 | 66 | 258 | 0.9 | 5.2 | 0.00 | 0.00 | 0.00 | 63 | 1005.0 |
| 20260505054048 | 66 | 241 | 0.0 | 3.5 | 0.00 | 0.00 | 0.00 | 62 | 1004.9 |
| 20260505053548 | 66 | 352 | 0.0 | 3.5 | 0.00 | 0.00 | 0.00 | 61 | 1004.9 |
| 20260505053059 | 67 | 252 | 0.0 | 2.6 | 0.00 | 0.00 | 0.00 | 62 | 1004.9 |
| 20260505052549 | 67 | 279 | 0.9 | 5.2 | 0.00 | 0.00 | 0.00 | 62 | 1004.8 |
| 20260505052047 | 67 | 317 | 0.9 | 5.2 | 0.00 | 0.00 | 0.00 | 61 | 1004.8 |
| 20260505051554 | 66 | 319 | 0.9 | 4.3 | 0.00 | 0.00 | 0.00 | 62 | 1004.7 |
| 20260505051048 | 66 | 218 | 0.0 | 3.5 | 0.00 | 0.00 | 0.00 | 62 | 1004.9 |
| 20260505050548 | 67 | 257 | 0.0 | 2.6 | 0.00 | 0.00 | 0.00 | 62 | 1005.1 |
| 20260505041605 | 67 | 352 | 0.0 | 2.6 | 0.00 | 0.00 | 0.00 | 62 | 1005.5 |
| 20260505041048 | 67 | 20 | 0.0 | 2.6 | 0.00 | 0.00 | 0.00 | 63 | 1005.5 |
| 20260505040548 | 67 | 23 | 0.9 | 1.7 | 0.00 | 0.00 | 0.00 | 62 | 1005.5 |
| 20260505040103 | 67 | 0 | 0.0 | 5.2 | 0.00 | 0.00 | 0.00 | 62 | 1005.5 |
| 20260505035549 | 67 | 273 | 0.0 | 5.2 | 0.00 | 0.00 | 0.00 | 62 | 1005.6 |
| 20260505035052 | 67 | 216 | 0.0 | 1.7 | 0.00 | 0.00 | 0.00 | 62 | 1005.7 |
| 20260505034556 | 67 | 0 | 0.0 | 3.5 | 0.00 | 0.00 | 0.00 | 62 | 1005.6 |
| 20260505034049 | 68 | 0 | 0.0 | 4.3 | 0.00 | 0.00 | 0.00 | 62 | 1005.6 |
| 20260505033549 | 68 | 277 | 0.9 | 5.2 | 0.00 | 0.00 | 0.00 | 62 | 1005.5 |
| 20260505033100 | 68 | 0 | 0.9 | 5.2 | 0.00 | 0.00 | 0.00 | 62 | 1005.6 |
| 20260505032549 | 68 | 273 | 0.0 | 2.6 | 0.00 | 0.00 | 0.00 | 62 | 1005.5 |
| 20260505032051 | 68 | 240 | 0.0 | 4.3 | 0.00 | 0.00 | 0.00 | 62 | 1005.5 |
| 20260505031556 | 68 | 161 | 0.0 | 4.3 | 0.00 | 0.00 | 0.00 | 62 | 1005.5 |
| 20260505031048 | 67 | 291 | 0.9 | 4.3 | 0.00 | 0.00 | 0.00 | 62 | 1005.4 |
| 20260505030553 | 67 | 0 | 0.0 | 7.0 | 0.00 | 0.00 | 0.00 | 62 | 1005.4 |
| 20260505030055 | 67 | 290 | 0.0 | 7.0 | 0.00 | 0.00 | 0.00 | 62 | 1005.3 |
| 20260505025548 | 67 | 0 | 0.9 | 7.0 | 0.00 | 0.00 | 0.00 | 63 | 1005.2 |
| 20260505025048 | 67 | 308 | 0.0 | 2.6 | 0.00 | 0.00 | 0.00 | 63 | 1005.1 |
| 20260505024553 | 68 | 0 | 0.0 | 2.6 | 0.00 | 0.00 | 0.00 | 62 | 1005.0 |
| 20260505024048 | 68 | 0 | 0.0 | 4.3 | 0.00 | 0.00 | 0.00 | 62 | 1005.0 |
| 20260505023549 | 68 | 242 | 0.9 | 4.3 | 0.00 | 0.00 | 0.00 | 62 | 1005.0 |
| 20260505023054 | 68 | 0 | 0.0 | 2.6 | 0.00 | 0.00 | 0.00 | 62 | 1004.9 |
| 20260505022549 | 68 | 0 | 0.0 | 2.6 | 0.00 | 0.00 | 0.00 | 62 | 1004.9 |
| 20260505022052 | 68 | 0 | 0.0 | 2.6 | 0.00 | 0.00 | 0.00 | 62 | 1004.9 |
| 20260505021550 | 68 | 284 | 0.0 | 2.6 | 0.00 | 0.00 | 0.00 | 62 | 1004.8 |
| 20260505021048 | 68 | 0 | 0.0 | 1.7 | 0.00 | 0.00 | 0.00 | 62 | 1004.7 |
| 20260505020549 | 68 | 337 | 0.0 | 1.7 | 0.00 | 0.00 | 0.00 | 62 | 1004.6 |
| 20260505020053 | 68 | 0 | 0.0 | 1.7 | 0.00 | 0.00 | 0.00 | 61 | 1004.6 |
| 20260505015549 | 68 | 0 | 0.0 | 0.9 | 0.00 | 0.00 | 0.00 | 61 | 1004.4 |
| 20260505015049 | 69 | 0 | 0.0 | 1.7 | 0.00 | 0.00 | 0.00 | 61 | 1004.4 |
| 20260505014553 | 69 | 0 | 0.0 | 1.7 | 0.00 | 0.00 | 0.00 | 61 | 1004.4 |
| 20260505014048 | 69 | 0 | 0.0 | 1.7 | 0.00 | 0.00 | 0.00 | 61 | 1004.4 |
| 20260505013548 | 69 | 0 | 0.0 | 2.6 | 0.00 | 0.00 | 0.00 | 60 | 1004.3 |
| 20260505013058 | 69 | 0 | 0.0 | 2.6 | 0.00 | 0.00 | 0.00 | 60 | 1004.3 |
| 20260505012548 | 69 | 214 | 0.0 | 2.6 | 0.00 | 0.00 | 0.00 | 60 | 1004.2 |
| 20260505012048 | 69 | 0 | 0.0 | 1.7 | 0.00 | 0.00 | 0.00 | 59 | 1004.3 |
| 20260505011552 | 70 | 0 | 0.0 | 2.6 | 0.00 | 0.00 | 0.00 | 59 | 1004.1 |
| 20260505011051 | 70 | 0 | 0.0 | 2.6 | 0.00 | 0.00 | 0.00 | 59 | 1004.2 |
| 20260505010549 | 70 | 206 | 0.0 | 1.7 | 0.00 | 0.00 | 0.00 | 59 | 1004.2 |
| 20260505005545 | 70 | 0 | 0.0 | 1.7 | 0.00 | 0.00 | 0.00 | 57 | 1004.2 |
| 20260505005048 | 71 | 0 | 0.0 | 0.9 | 0.00 | 0.00 | 0.00 | 57 | 1004.1 |
| 20260505004550 | 71 | 0 | 0.0 | 1.7 | 0.00 | 0.00 | 0.00 | 56 | 1004.2 |
| 20260505004051 | 71 | 0 | 0.0 | 2.6 | 0.00 | 0.00 | 0.00 | 55 | 1004.2 |
| 20260505003550 | 72 | 0 | 0.0 | 2.6 | 0.00 | 0.00 | 0.00 | 55 | 1004.0 |
| 20260505003052 | 72 | 232 | 0.0 | 2.6 | 0.00 | 0.00 | 0.00 | 54 | 1004.1 |
| 20260505002549 | 72 | 241 | 0.9 | 3.5 | 0.00 | 0.00 | 0.00 | 53 | 1004.1 |
| 20260505002050 | 72 | 227 | 0.9 | 3.5 | 0.00 | 0.00 | 0.00 | 53 | 1004.2 |
| 20260505001554 | 73 | 0 | 0.0 | 2.6 | 0.00 | 0.00 | 0.00 | 53 | 1004.2 |
| 20260505001049 | 73 | 0 | 0.0 | 2.6 | 0.00 | 0.00 | 0.00 | 52 | 1004.2 |
| 20260505000549 | 73 | 0 | 0.0 | 2.6 | 0.00 | 0.00 | 0.00 | 52 | 1004.3 |
| 20260504235549 | 74 | 252 | 0.9 | 3.5 | 0.00 | 0.00 | 0.00 | 51 | 1004.4 |
| 20260504235050 | 74 | 315 | 0.0 | 7.0 | 0.00 | 0.00 | 0.00 | 50 | 1004.6 |
| 20260504234603 | 74 | 246 | 0.9 | 7.0 | 0.00 | 0.00 | 0.00 | 50 | 1004.7 |
| 20260504234053 | 74 | 221 | 1.7 | 7.0 | 0.00 | 0.00 | 0.00 | 48 | 1004.7 |
| 20260504233549 | 75 | 267 | 2.6 | 7.0 | 0.00 | 0.00 | 0.00 | 48 | 1004.8 |
| 20260504233055 | 75 | 250 | 1.7 | 6.1 | 0.00 | 0.00 | 0.00 | 48 | 1004.8 |
| 20260504232549 | 75 | 296 | 0.0 | 8.7 | 0.00 | 0.00 | 0.00 | 48 | 1004.8 |
| 20260504232049 | 76 | 215 | 0.9 | 8.7 | 0.00 | 0.00 | 0.00 | 47 | 1004.8 |
| 20260504231553 | 76 | 277 | 0.9 | 13.0 | 0.00 | 0.00 | 0.00 | 47 | 1004.8 |
| 20260504231048 | 76 | 213 | 2.6 | 13.0 | 0.00 | 0.00 | 0.00 | 46 | 1004.8 |
| 20260504230549 | 76 | 254 | 3.5 | 13.0 | 0.00 | 0.00 | 0.00 | 46 | 1004.8 |
| 20260504230056 | 76 | 313 | 1.7 | 7.8 | 0.00 | 0.00 | 0.00 | 47 | 1004.8 |
| 20260504225549 | 76 | 285 | 1.7 | 10.4 | 0.00 | 0.00 | 0.00 | 47 | 1005.0 |
| 20260504225054 | 76 | 35 | 1.7 | 11.3 | 0.00 | 0.00 | 0.00 | 48 | 1004.9 |
| 20260504224554 | 75 | 0 | 2.6 | 11.3 | 0.00 | 0.00 | 0.00 | 47 | 1005.0 |
| 20260504224049 | 75 | 294 | 0.9 | 8.7 | 0.00 | 0.00 | 0.00 | 50 | 1005.0 |
| 20260504223549 | 75 | 319 | 2.6 | 8.7 | 0.00 | 0.00 | 0.00 | 51 | 1005.0 |
| 20260504223055 | 75 | 229 | 0.9 | 3.5 | 0.00 | 0.00 | 0.00 | 55 | 1005.2 |
| 20260504222549 | 75 | 211 | 0.9 | 3.5 | 0.00 | 0.00 | 0.00 | 54 | 1005.1 |
| 20260504222054 | 75 | 221 | 0.0 | 3.5 | 0.00 | 0.00 | 0.00 | 54 | 1005.2 |
| 20260504221552 | 75 | 262 | 0.0 | 2.6 | 0.00 | 0.00 | 0.00 | 54 | 1005.0 |
| 20260504221049 | 75 | 254 | 0.9 | 2.6 | 0.00 | 0.00 | 0.00 | 54 | 1005.0 |
| 20260504220550 | 75 | 209 | 0.0 | 2.6 | 0.00 | 0.00 | 0.00 | 54 | 1004.9 |
| 20260504220104 | 75 | 0 | 0.0 | 2.6 | 0.00 | 0.00 | 0.00 | 54 | 1005.1 |
| 20260504215552 | 75 | 0 | 0.0 | 2.6 | 0.00 | 0.00 | 0.00 | 52 | 1005.4 |
| 20260504215049 | 76 | 236 | 0.0 | 2.6 | 0.00 | 0.00 | 0.00 | 51 | 1005.5 |
| 20260504214604 | 76 | 230 | 0.0 | 3.5 | 0.00 | 0.00 | 0.00 | 53 | 1005.6 |
| 20260504214048 | 76 | 0 | 0.9 | 4.3 | 0.00 | 0.00 | 0.00 | 49 | 1005.8 |
| 20260504213547 | 76 | 317 | 0.9 | 4.3 | 0.00 | 0.00 | 0.00 | 50 | 1005.7 |
| 20260504213112 | 76 | 248 | 0.0 | 3.5 | 0.00 | 0.00 | 0.00 | 48 | 1005.7 |
| 20260504212552 | 76 | 0 | 0.0 | 3.5 | 0.00 | 0.00 | 0.00 | 50 | 1005.8 |
| 20260504212048 | 76 | 287 | 0.9 | 7.0 | 0.00 | 0.00 | 0.00 | 49 | 1005.9 |
| 20260504211600 | 76 | 0 | 0.9 | 7.0 | 0.00 | 0.00 | 0.00 | 48 | 1005.9 |
| 20260504211048 | 76 | 241 | 0.0 | 6.1 | 0.00 | 0.00 | 0.00 | 49 | 1005.9 |
| 20260504210551 | 76 | 0 | 0.0 | 6.1 | 0.00 | 0.00 | 0.00 | 52 | 1005.9 |
| 20260504210105 | 76 | 57 | 0.9 | 6.1 | 0.00 | 0.00 | 0.00 | 53 | 1006.0 |
| 20260504205549 | 75 | 304 | 1.7 | 5.2 | 0.00 | 0.00 | 0.00 | 52 | 1006.1 |
| 20260504205048 | 75 | 221 | 0.9 | 5.2 | 0.00 | 0.00 | 0.00 | 53 | 1006.1 |
| 20260504204605 | 75 | 260 | 0.9 | 3.5 | 0.00 | 0.00 | 0.00 | 54 | 1006.1 |
| 20260504204050 | 75 | 0 | 0.9 | 4.3 | 0.00 | 0.00 | 0.00 | 53 | 1006.1 |
| 20260504203548 | 75 | 226 | 0.9 | 6.1 | 0.00 | 0.00 | 0.00 | 51 | 1006.3 |
| 20260504203058 | 75 | 242 | 2.6 | 6.1 | 0.00 | 0.00 | 0.00 | 52 | 1006.5 |
| 20260504202548 | 74 | 327 | 1.7 | 4.3 | 0.00 | 0.00 | 0.00 | 52 | 1006.5 |
| 20260504202048 | 75 | 260 | 0.0 | 4.3 | 0.00 | 0.00 | 0.00 | 54 | 1006.4 |
| 20260504201559 | 75 | 0 | 0.9 | 7.0 | 0.00 | 0.00 | 0.00 | 55 | 1006.7 |
| 20260504201047 | 75 | 0 | 1.7 | 7.0 | 0.00 | 0.00 | 0.00 | 52 | 1006.7 |
| 20260504200547 | 75 | 252 | 1.7 | 7.0 | 0.00 | 0.00 | 0.00 | 51 | 1006.7 |
| 20260504200054 | 74 | 269 | 0.0 | 7.0 | 0.00 | 0.00 | 0.00 | 57 | 1006.7 |
| 20260504195548 | 74 | 167 | 1.7 | 7.0 | 0.00 | 0.00 | 0.00 | 54 | 1006.7 |
| 20260504195048 | 74 | 297 | 0.9 | 5.2 | 0.00 | 0.00 | 0.00 | 56 | 1006.7 |
| 20260504194558 | 73 | 252 | 0.9 | 7.8 | 0.00 | 0.00 | 0.00 | 59 | 1006.9 |
| 20260504194048 | 73 | 211 | 0.9 | 7.8 | 0.00 | 0.00 | 0.00 | 56 | 1007.1 |
| 20260504193548 | 73 | 202 | 2.6 | 7.8 | 0.00 | 0.00 | 0.00 | 59 | 1007.2 |
| 20260504193103 | 72 | 229 | 0.9 | 4.3 | 0.00 | 0.00 | 0.00 | 60 | 1007.2 |
| 20260504192548 | 72 | 0 | 1.7 | 6.1 | 0.00 | 0.00 | 0.00 | 63 | 1007.4 |
| 20260504192050 | 71 | 263 | 0.9 | 6.1 | 0.00 | 0.00 | 0.00 | 61 | 1007.5 |
| 20260504191554 | 71 | 34 | 0.9 | 5.2 | 0.00 | 0.00 | 0.00 | 62 | 1007.3 |
| 20260504191047 | 71 | 199 | 1.7 | 5.2 | 0.00 | 0.00 | 0.00 | 61 | 1007.7 |
| 20260504190547 | 70 | 219 | 1.7 | 4.3 | 0.00 | 0.00 | 0.00 | 63 | 1007.7 |
| 20260504190106 | 69 | 250 | 0.9 | 5.2 | 0.00 | 0.00 | 0.00 | 63 | 1007.6 |
| 20260504185547 | 69 | 208 | 1.7 | 5.2 | 0.00 | 0.00 | 0.00 | 63 | 1007.8 |
| 20260504185048 | 69 | 204 | 0.9 | 3.5 | 0.00 | 0.00 | 0.00 | 63 | 1008.1 |
| 20260504184550 | 69 | 0 | 0.9 | 5.2 | 0.00 | 0.00 | 0.00 | 63 | 1008.0 |
| 20260504184048 | 69 | 242 | 1.7 | 5.2 | 0.00 | 0.00 | 0.00 | 63 | 1007.9 |
| 20260504183547 | 69 | 191 | 0.9 | 6.1 | 0.00 | 0.00 | 0.00 | 62 | 1007.9 |
| 20260504183100 | 69 | 29 | 1.7 | 7.8 | 0.00 | 0.00 | 0.00 | 61 | 1007.9 |
| 20260504182548 | 69 | 304 | 1.7 | 7.8 | 0.00 | 0.00 | 0.00 | 61 | 1007.9 |
| 20260504182048 | 69 | 232 | 0.9 | 6.1 | 0.00 | 0.00 | 0.00 | 62 | 1007.7 |
| 20260504181552 | 70 | 204 | 0.9 | 6.1 | 0.00 | 0.00 | 0.00 | 61 | 1007.5 |
| 20260504181048 | 70 | 238 | 1.7 | 6.1 | 0.00 | 0.00 | 0.00 | 59 | 1007.5 |
| 20260504180548 | 70 | 265 | 0.9 | 5.2 | 0.00 | 0.00 | 0.00 | 59 | 1007.3 |
| 20260504180132 | 70 | 205 | 0.9 | 5.2 | 0.00 | 0.00 | 0.00 | 61 | 1007.2 |
| 20260504175547 | 70 | 0 | 1.7 | 9.6 | 0.00 | 0.00 | 0.00 | 59 | 1007.2 |
| 20260504175051 | 70 | 260 | 0.9 | 9.6 | 0.00 | 0.00 | 0.00 | 61 | 1007.2 |
| 20260504174556 | 70 | 229 | 1.7 | 9.6 | 0.00 | 0.00 | 0.00 | 58 | 1007.2 |
| 20260504174051 | 70 | 286 | 0.9 | 4.3 | 0.00 | 0.00 | 0.00 | 62 | 1007.0 |
| 20260504173551 | 70 | 211 | 0.9 | 6.1 | 0.00 | 0.00 | 0.00 | 61 | 1007.2 |
| 20260504173054 | 69 | 202 | 0.9 | 6.1 | 0.00 | 0.00 | 0.00 | 62 | 1007.2 |
| 20260504172550 | 69 | 271 | 0.9 | 5.2 | 0.00 | 0.00 | 0.00 | 65 | 1007.4 |
| 20260504172051 | 68 | 248 | 0.9 | 5.2 | 0.00 | 0.00 | 0.00 | 66 | 1007.4 |
| 20260504171554 | 68 | 288 | 1.7 | 3.5 | 0.00 | 0.00 | 0.00 | 65 | 1007.2 |
| 20260504171049 | 68 | 86 | 0.0 | 3.5 | 0.00 | 0.00 | 0.00 | 65 | 1006.8 |
| 20260504170548 | 68 | 5 | 0.9 | 5.2 | 0.00 | 0.00 | 0.00 | 65 | 1006.9 |
| 20260504151049 | 62 | 0 | 0.9 | 2.6 | 0.00 | 0.00 | 0.00 | 69 | 1008.1 |
| 20260504150549 | 62 | 0 | 0.0 | 3.5 | 0.00 | 0.00 | 0.00 | 72 | 1008.2 |
| 20260504141048 | 60 | 45 | 0.0 | 2.6 | 0.00 | 0.00 | 0.00 | 70 | 1008.2 |
| 20260504140549 | 59 | 0 | 0.0 | 3.5 | 0.00 | 0.00 | 0.00 | 72 | 1008.2 |
| 20260504130549 | 55 | 0 | 0.9 | 2.6 | 0.00 | 0.00 | 0.00 | 73 | 1008.6 |
| 20260504120104 | 53 | 309 | 0.9 | 2.6 | 0.00 | 0.00 | 0.00 | 74 | 1008.9 |
| 20260504110547 | 51 | 296 | 0.0 | 1.7 | 0.00 | 0.00 | 0.00 | 73 | 1008.6 |
| 20260504100547 | 50 | 0 | 0.0 | 1.7 | 0.00 | 0.00 | 0.00 | 73 | 1008.8 |
| 20260504100115 | 50 | 0 | 0.0 | 1.7 | 0.00 | 0.00 | 0.00 | 73 | 1008.8 |
| 20260504081552 | 52 | 0 | 0.0 | 1.7 | 0.00 | 0.00 | 0.00 | 67 | 1009.5 |
| 20260504081048 | 52 | 292 | 0.0 | 0.9 | 0.00 | 0.00 | 0.00 | 67 | 1009.4 |
| 20260504080548 | 52 | 0 | 0.0 | 2.6 | 0.00 | 0.00 | 0.00 | 66 | 1009.5 |